Weather History for Cut Bank, MT

Change the Weather History Date:

Monday, March 4, 2013

  Actual Average Record
Temperature  
Mean Temperature 21 °F 28 °F  
Max Temperature 27 °F 39 °F 64 °F (1987)
Min Temperature 14 °F 16 °F -25 °F (1962)
Degree Days  
Heating Degree Days 44 37  
Month to date heating degree days 118 151  
Since 1 July heating degree days 5857 6211  
Cooling Degree Days 0 0  
Month to date cooling degree days 0 0  
Year to date cooling degree days 0 0  
Moisture  
Dew Point 15 °F    
Average Humidity 74    
Maximum Humidity 88    
Minimum Humidity 60    
Precipitation  
Precipitation T in 0.01 in 0.33 in (1921)
Month to date precipitation 0.01 0.05  
Year to date precipitation 0.74 0.46  
Snow  
Snow 0.00 in - - ()
Snow Depth 2.00 in    
Sea Level Pressure  
Sea Level Pressure 30.29 in    
Wind  
Wind Speed 10 mph (North)    
Max Wind Speed 26 mph    
Max Gust Speed 29 mph    
Visibility 7 miles    
Events Snow    
T = Trace of Precipitation, MM = Missing Value Source: NWS Daily Summary

Daily Weather History Graph

Daily Weather History Graph

Search for Another Location

Airport:

Trip Planner

Search our weather history database for the weather conditions in past years. The results will help you decide how hot, cold, wet, or windy it might be!

Date:

Astronomy

Mar. 04, 2013 Rise Set
Actual Time 7:04 AM MST 6:18 PM MST
Civil Twilight 6:33 AM MST 6:49 PM MST
Nautical Twilight 5:56 AM MST 7:26 PM MST
Astronomical Twilight 5:20 AM MST 8:03 PM MST
Moon 1:38 AM MST (3/4) 10:42 AM MST (3/4)
Length of Visible Light 12h 16m
Length of Day
11h 14m
Waning Gibbous, 51% of the Moon is Illuminated
Mar 4
Waning Gibbous
Mar 4
Last Quarter
Mar 11
New
Mar 19
First Quarter
Mar 27
Full

Hourly Weather History & Observations

Time (MST) Temp. Windchill Dew Point Humidity Pressure Visibility Wind Dir Wind Speed Gust Speed Precip Events Conditions
12:09 AM 19.4 °F 2.5 °F 15.8 °F 86% 30.09 in 5.0 mi North 23.0 mph 28.8 mph 0.00 in Snow Light Snow
12:48 AM 19.4 °F 5.5 °F 15.8 °F 86% 30.11 in 2.5 mi North 15.0 mph - 0.00 in Snow Light Snow
12:56 AM 19.0 °F 2.7 °F 15.1 °F 85% 30.23 in 2.5 mi North 20.7 mph 27.6 mph 0.00 in Snow Light Snow
1:04 AM 19.4 °F 3.6 °F 15.8 °F 86% 30.12 in 2.0 mi North 19.6 mph - 0.00 in Snow Light Snow
1:15 AM 19.4 °F 3.6 °F 15.8 °F 86% 30.12 in 1.5 mi North 19.6 mph - 0.00 in Snow Light Snow
1:31 AM 19.4 °F 2.8 °F 15.8 °F 86% 30.13 in 3.0 mi North 21.9 mph 27.6 mph 0.00 in Snow Light Snow
1:56 AM 19.4 °F 4.1 °F 15.8 °F 86% 30.15 in 6.0 mi North 18.4 mph 27.6 mph N/A Snow Light Snow
2:56 AM 19.9 °F 6.2 °F 16.0 °F 85% 30.29 in 9.0 mi North 15.0 mph - 0.00 in Snow Light Snow
3:45 AM 19.4 °F 5.5 °F 15.8 °F 86% 30.16 in 10.0 mi NNW 15.0 mph - 0.00 in   Overcast
3:53 AM 19.4 °F 4.5 °F 15.8 °F 86% 30.17 in 10.0 mi NNW 17.3 mph - 0.00 in   Overcast
3:56 AM 19.9 °F 4.8 °F 16.0 °F 85% 30.31 in 10.0 mi NNW 18.4 mph - 0.00 in   Overcast
4:56 AM 19.4 °F 4.5 °F 15.8 °F 86% 30.19 in 10.0 mi NNW 17.3 mph - N/A   Overcast
5:56 AM 19.9 °F 6.7 °F 15.1 °F 81% 30.35 in 10.0 mi NNW 13.8 mph - 0.00 in   Overcast
6:56 AM 19.9 °F 8.6 °F 16.0 °F 85% 30.37 in 3.0 mi NNW 10.4 mph - 0.00 in Snow Light Snow
7:03 AM 19.4 °F 9.5 °F 15.8 °F 86% 30.22 in 3.0 mi NNW 8.1 mph - 0.00 in Snow Light Snow
7:12 AM 19.4 °F 8.6 °F 15.8 °F 86% 30.22 in 4.0 mi NNW 9.2 mph - 0.00 in Snow Light Snow
7:24 AM 19.4 °F 10.4 °F 15.8 °F 86% 30.23 in 1.8 mi NNW 6.9 mph - 0.00 in Snow Light Snow
7:32 AM 19.4 °F 11.5 °F 17.6 °F 93% 30.23 in 1.5 mi NNW 5.8 mph - 0.00 in Snow Light Snow
7:44 AM 19.4 °F 7.9 °F 17.6 °F 93% 30.23 in 2.0 mi NNW 10.4 mph - 0.00 in Snow Light Snow
7:56 AM 19.9 °F 8.6 °F 16.0 °F 85% 30.38 in 2.5 mi North 10.4 mph - 0.00 in Snow Light Snow
8:21 AM 19.4 °F 7.9 °F 17.6 °F 93% 30.23 in 1.8 mi North 10.4 mph - 0.00 in Snow Light Snow
8:31 AM 19.4 °F 7.2 °F 17.6 °F 93% 30.24 in 2.5 mi North 11.5 mph - 0.00 in Snow Light Snow
8:46 AM 19.4 °F 6.6 °F 15.8 °F 86% 30.24 in 4.0 mi North 12.7 mph - 0.00 in Snow Light Snow
8:56 AM 19.9 °F 6.7 °F 16.0 °F 85% 30.40 in 7.0 mi North 13.8 mph - 0.00 in Snow Light Snow
9:56 AM 21.0 °F 9.3 °F 15.1 °F 78% 30.42 in 10.0 mi North 11.5 mph - 0.00 in   Overcast
10:42 AM 21.2 °F 10.1 °F 15.8 °F 80% 30.27 in 10.0 mi NNW 10.4 mph - N/A   Overcast
10:56 AM 23.0 °F 11.1 °F 16.0 °F 74% 30.42 in 10.0 mi North 12.7 mph - N/A   Overcast
11:09 AM 21.2 °F 10.1 °F 15.8 °F 80% 30.28 in 10.0 mi North 10.4 mph - N/A   Overcast
11:56 AM 23.0 °F 14.7 °F 15.1 °F 72% 30.43 in 10.0 mi North 6.9 mph - N/A   Overcast
12:56 PM 23.0 °F 14.7 °F 12.9 °F 65% 30.44 in 10.0 mi NNW 6.9 mph - N/A   Overcast
1:56 PM 24.1 °F 18.2 °F 16.0 °F 71% 30.42 in 10.0 mi NW 4.6 mph - N/A   Mostly Cloudy
2:56 PM 25.0 °F - 14.0 °F 63% 30.41 in 10.0 mi Calm Calm - N/A   Clear
3:56 PM 25.0 °F - 12.0 °F 58% 30.40 in 10.0 mi Calm Calm - N/A   Clear
4:56 PM 25.0 °F 18.1 °F 12.0 °F 58% 30.37 in 10.0 mi East 5.8 mph - N/A   Scattered Clouds
5:56 PM 21.9 °F 15.7 °F 12.9 °F 68% 30.39 in 10.0 mi SSE 4.6 mph - N/A   Mostly Cloudy
6:56 PM 19.9 °F 12.1 °F 14.0 °F 78% 30.39 in 10.0 mi SSE 5.8 mph - N/A   Mostly Cloudy
7:56 PM 16.0 °F 7.4 °F 12.0 °F 84% 30.39 in 10.0 mi South 5.8 mph - N/A   Clear
8:56 PM 15.1 °F 5.2 °F 10.9 °F 84% 30.39 in 10.0 mi South 6.9 mph - N/A   Clear
9:56 PM 17.1 °F 5.0 °F 10.9 °F 77% 30.35 in 10.0 mi SSE 10.4 mph - N/A   Clear
10:56 PM 15.1 °F 4.2 °F 10.9 °F 84% 30.34 in 10.0 mi SE 8.1 mph - N/A   Clear